STARLINK-36490, 67305

Orbit data source: Space-Track

STARLINK-36490, 67305 is a payload satellite owned by SpaceX/Seattle (US) in LEO that was launched on Sun, 04 Jan 2026 UTC via an FALCON 9 launch vehicle from the Air Force Eastern Test Range (AFETR). Payload-class satellites include a variety of spacecraft equipped with specific instruments for various scientific and technological missions. These include communications satellites like Starlink; space stations such as the ISS; scientific satellites like the Hubble; Earth observation satellites from companies like Planet Labs, Umbra, and HawkEye 360; GPS; miniature CubeSats for education and research; and military/defense satellites.

Loading next visibility...
Identifier
67305, 2026-002A
Orbit
LEO
Country
Flag of USUS
Related business
Manufacturer
SpaceX/Seattle
Mission
Operational Commercial Communications
Bus & Motor
STARLINK V2MO, Unknown motor
Mass
575 kg wet, ~530 kg dry
Launch date (UTC)
2026-01-04 (5 months ago)
Launch vehicle
FALCON 9
Launch site
Air Force Eastern Test Range (AFETR)
Object type
Payload
Rocket body
Debris
Shape & HBR
Box + 2 Pan, 17.7 m
Radar Cross Section
36.964 m², Large (>1 m²)

Expand to show TLE details & history
Last TLE update: 17 hours ago

TLE from 17 hours ago
0 STARLINK-36490
1 67305U 26002A   26171.15903914  .00012563  00000-0  46558-3 0  9998
2 67305  43.0014 106.2824 0001307 270.9896  89.0806 15.27559457 26818
Epoch: 2026-06-20T03:49Z
TLE epoch observation values (Epoch: 2026-06-20T03:49:00.981Z)
Latitude
-0.00002°
Longitude
140.65062°
Altitude
482.872 km
Speed
7.626 km/s
True Right ascension
07h 05m 07s
True Declination
0° 00' 00"
Sunlit
Object was in daylight at epoch
Visualization orbit readout
Latitude
Unknown
Longitude
Unknown
Altitude
Unknown
Speed
Unknown
Apparent Right ascension
Unknown
Apparent Declination
Unknown
Sunlit
N/A
Visualization observer readout
Local Sidereal Time
07:22:06
Azimuth
Unknown
Elevation
Unknown
Doppler factor
Unknown
Orbital elements
Apogee altitude
485.953 km
Perigee altitude
484.159 km
Semi-major axis
6,863.193 km
Eccentricity
0.00013
Inclination
43.0014°
RAAN
106.2824°
Arg. of periapsis
270.9896°
True anomaly
89.09558°
Mean anomaly
89.0806°
Eccentric anomaly
89.08809°
Mean motion
3.81728 °/min
Orbital period
94.31 mins
BSTAR
0.00046558
Loading maneuver chart data...
Computing Atmospheric mass density...
Loading historical data...
Loading historical data...
Loading historical data...
Loading historical data...
Loading historical data...
Loading historical data...
Loading historical data...

Documentation

Showing up to 5 results
|